Temp
15 14 14 14 14 14 14 14 14 13 13 13 13 12 11 11 11 10 10 10 10 10 9 9 9 9 9 8 8 8 7 6 6 7 7 7 7 7 6 6 6 6 6 6 5 5 6 6 6 6 6 5 5 5 5 5 5 5 5 5 5 5 5 5 5 5 5 5 5
15 14 14 14 14 14 14 13 13 13 13 13 12 12 11 11 11 11 10 10 10 10 9 9 9 9 8 8 8 8 7 6 7 7 7 7 7 7 6 6 6 6 6 6 6 6 6 6 6 6 5 5 5 5 5 5 5 5 5 5 5 5 5 5 5 5 5 5 5
14 14 14 14 14 14 13 13 13 13 13 13 12 12 11 11 11 11 10 10 10 10 10 9 9 9 8 8 8 7 7 6 7 7 7 7 7 7 6 6 6 6 6 6 6 6 6 6 6 5 5 5 5 5 5 5 5 5 6 6 5 5 5 5 5 5 5 5 5
14 14 14 13 14 14 14 13 13 13 13 13 12 12 11 11 11 11 11 10 10 10 10 9 9 8 8 8 8 7 7 7 7 7 7 7 7 7 6 6 6 6 6 5 5 6 6 6 5 5 5 6 6 6 5 5 5 5 5 5 5 5 5 5 5 5 5 5 5
14 14 14 13 13 14 14 13 13 13 13 13 12 12 11 11 11 11 11 10 10 10 10 9 9 8 8 8 8 7 7 7 7 7 7 7 7 6 6 6 6 6 6 5 5 5 5 6 6 5 5 6 6 6 5 5 5 5 5 5 5 5 5 5 5 5 5 5 5
14 14 14 13 13 14 14 13 13 13 13 13 12 12 11 11 11 11 11 10 10 10 10 9 9 8 8 8 7 7 7 7 7 7 7 7 7 6 6 6 6 6 6 5 5 5 5 5 6 6 6 6 6 6 5 5 5 5 5 5 5 5 5 5 5 5 5 5 5
14 14 14 13 13 13 13 13 13 13 13 13 12 12 12 11 11 11 11 11 10 10 9 9 8 8 8 8 7 7 7 7 7 7 7 7 7 6 6 6 6 6 6 5 5 5 5 5 6 6 6 6 6 6 5 5 5 5 6 5 5 5 5 5 5 5 5 5 5
14 14 14 13 13 13 13 13 13 13 13 12 12 12 12 11 11 11 11 11 10 10 9 9 9 8 8 8 7 7 7 7 7 7 7 7 6 6 6 6 6 6 6 5 5 5 5 5 6 6 6 5 5 6 5 5 5 5 6 5 5 5 5 5 5 5 5 5 5
14 14 14 13 13 13 13 13 13 13 12 12 12 12 12 11 11 11 11 11 10 10 9 9 9 9 8 8 7 7 7 7 7 7 7 6 6 6 6 6 6 6 6 5 5 5 5 5 6 6 6 5 5 5 5 5 5 5 5 5 5 5 5 5 4 5 5 5 5
15 14 14 13 13 13 13 13 12 12 12 12 12 12 11 11 11 11 11 11 10 10 9 9 9 8 8 8 7 7 7 7 7 7 7 6 6 6 6 6 6 6 6 6 5 5 5 6 6 6 5 5 5 5 5 5 5 5 5 5 5 5 5 5 5 5 5 5 4
15 14 14 13 13 13 13 13 12 12 12 12 12 11 11 11 11 11 11 11 10 10 9 9 9 8 8 8 7 7 7 7 7 7 7 7 6 6 6 6 6 6 6 6 6 6 6 6 6 6 5 5 5 5 5 5 5 5 5 5 5 5 5 5 5 5 5 5 4
15 14 14 13 13 13 13 13 12 12 12 12 12 11 11 11 11 10 10 10 10 10 9 9 9 8 8 8 7 7 7 7 7 7 7 7 7 7 6 6 6 6 6 6 6 6 6 6 5 5 5 5 5 5 5 5 5 5 5 5 5 5 5 5 5 5 5 5 4
15 14 14 14 13 13 13 13 12 12 12 12 12 11 11 11 10 10 10 10 10 9 9 9 9 8 8 8 8 7 7 7 7 7 7 7 7 7 7 6 6 6 6 6 6 6 6 6 5 5 5 5 5 5 5 5 5 5 5 5 5 5 5 5 5 5 5 5 4
15 14 14 14 13 13 13 13 12 12 12 12 11 11 11 11 10 10 10 9 9 9 9 9 8 8 8 8 8 8 8 8 7 7 7 7 7 7 7 6 6 6 6 6 6 6 6 6 5 5 5 5 5 5 5 4 4 5 5 5 5 5 5 5 5 5 4 4 4
15 14 14 14 13 13 13 13 13 12 12 12 11 11 11 11 10 10 9 9 9 9 9 9 8 8 8 8 8 8 8 8 8 8 8 7 7 7 7 6 6 6 6 6 6 6 5 5 5 5 5 5 5 5 4 4 4 4 5 5 5 5 5 5 5 5 4 4 4
15 15 14 14 14 13 13 13 13 12 12 12 11 11 11 11 10 10 9 9 9 9 9 9 9 8 8 8 8 8 8 8 8 8 8 8 7 7 7 6 6 6 6 6 6 5 5 5 5 5 5 5 5 5 4 4 4 4 4 5 5 5 5 5 5 5 5 4 4
15 15 15 14 14 13 13 13 13 12 12 12 11 11 11 11 10 10 9 9 10 10 10 9 9 9 9 8 8 8 8 8 8 8 8 8 8 7 7 7 6 6 7 6 6 5 5 6 6 5 5 5 4 4 4 4 4 5 5 5 5 5 5 5 5 5 5 5 4
15 15 15 14 14 14 13 13 12 12 12 12 11 11 11 10 10 10 9 9 10 10 10 10 9 9 9 9 8 8 8 8 8 8 8 8 8 7 7 7 7 7 7 6 6 6 6 6 6 5 5 4 4 3 3 4 5 5 5 5 5 5 5 5 5 5 5 5 5
16 15 15 15 14 14 13 13 13 12 12 12 11 11 11 10 10 10 10 10 10 10 10 10 9 9 9 9 8 8 8 8 8 8 8 8 7 7 7 7 7 7 7 6 6 6 6 6 5 5 4 4 3 3 3 4 5 5 5 5 5 5 5 5 5 5 5 5 5
16 16 15 15 15 14 14 13 13 12 12 12 11 11 11 10 10 10 10 10 10 10 10 10 10 9 9 9 9 8 8 8 8 8 8 8 7 7 7 7 7 7 7 6 6 6 5 5 5 5 4 3 3 3 3 4 5 5 5 5 5 5 5 5 5 5 5 5 5
16 16 16 15 15 14 14 13 13 13 12 12 11 11 11 11 11 11 10 10 10 10 10 10 10 9 9 9 8 8 8 8 8 8 8 7 7 7 7 7 7 7 7 6 6 6 5 5 5 4 4 3 3 3 3 4 4 5 5 5 5 5 5 5 5 5 5 5 5
16 16 16 15 15 15 14 14 13 13 12 12 12 11 11 11 11 11 11 10 10 10 10 10 10 9 9 9 8 8 8 8 8 8 8 7 7 7 7 7 7 7 7 6 6 5 5 5 5 4 3 3 3 3 4 4 4 5 5 5 5 5 5 5 5 5 5 5 5
16 16 16 16 15 15 14 14 14 13 13 13 12 12 12 12 11 11 11 10 10 10 9 9 9 9 9 9 8 8 7 7 7 7 7 7 7 6 6 7 7 7 7 6 6 5 5 5 4 4 3 3 3 4 4 4 4 5 5 5 5 5 5 5 5 5 5 5 4
16 16 16 16 16 15 15 14 14 14 13 13 13 13 12 12 12 11 11 10 10 9 9 9 9 9 9 8 8 7 7 7 7 7 7 6 6 6 6 7 7 7 6 6 6 5 5 5 4 3 3 3 3 4 4 4 4 4 5 5 5 5 5 5 5 5 5 5 4
16 16 16 16 16 15 15 15 14 14 14 14 13 13 13 12 12 11 10 10 9 9 8 8 8 8 8 8 7 7 7 7 7 7 6 5 5 6 6 6 6 6 6 5 5 5 5 5 4 3 3 3 4 4 5 5 4 4 4 4 4 4 4 4 5 5 5 4 4
16 16 16 16 16 16 15 15 14 14 14 14 14 13 13 12 11 10 10 9 8 8 8 7 7 7 7 7 7 7 7 7 7 6 5 5 5 6 6 6 6 6 5 5 5 5 5 4 4 3 3 3 4 4 4 4 4 4 4 4 4 4 4 4 4 4 4 4 4
16 16 16 16 16 16 15 15 14 14 14 14 13 13 12 11 10 9 9 8 7 7 6 6 6 6 6 6 6 6 6 6 6 6 5 5 5 6 6 6 6 5 5 5 5 5 5 4 4 3 3 3 3 3 3 4 4 4 4 4 4 3 3 3 3 4 4 4 4
16 16 16 16 16 15 15 14 14 14 13 13 12 11 11 10 9 8 8 7 6 6 5 5 5 5 5 5 5 6 6 6 6 5 5 5 5 6 6 6 6 5 4 4 5 5 4 4 3 3 3 3 3 3 3 3 3 3 3 3 3 3 3 3 3 3 4 4 4
16 16 16 16 15 15 15 14 13 12 12 11 11 10 10 9 8 8 7 7 6 6 5 5 5 4 4 5 5 6 6 6 6 5 5 5 5 5 6 6 5 4 4 4 5 5 4 4 3 3 3 3 3 3 3 3 3 3 3 3 3 3 3 3 4 4 4 4 4
16 16 15 15 14 14 13 13 12 11 11 10 10 10 9 9 8 8 7 7 6 6 5 5 5 4 5 5 5 6 6 6 6 5 5 5 5 5 6 5 4 4 4 4 5 4 4 3 3 3 3 3 3 3 3 2 3 3 3 3 3 3 4 4 4 4 4 4 4
15 15 14 14 13 13 12 12 11 11 10 10 10 9 9 8 8 7 7 7 6 6 5 5 5 5 5 6 6 6 6 6 5 5 5 5 5 5 5 4 4 4 4 4 4 4 4 3 3 3 3 3 3 3 3 2 2 3 3 3 3 4 4 4 4 4 4 4 5
14 14 13 13 12 12 11 11 11 10 10 10 9 9 8 8 8 7 7 6 6 5 5 5 5 5 6 6 6 6 6 5 5 5 5 5 5 5 4 4 3 4 4 4 4 4 3 3 3 3 4 3 3 3 3 2 2 2 3 3 3 3 4 4 4 4 4 4 5
14 13 13 12 12 11 11 10 10 10 9 9 9 8 8 7 7 7 6 6 6 5 5 5 5 5 6 6 6 6 5 5 5 5 4 4 4 4 4 3 3 4 4 4 4 4 3 3 3 3 4 3 3 3 3 2 2 2 3 3 3 3 4 4 4 4 4 5 5
13 13 13 12 12 11 10 10 10 9 9 9 8 8 8 7 7 6 6 6 6 6 6 6 6 6 6 6 6 6 5 5 5 4 4 4 4 4 3 3 3 3 4 4 4 4 3 3 3 3 3 3 3 3 2 2 2 2 3 3 3 3 4 4 4 4 4 5 5
13 13 13 12 12 11 11 10 9 9 8 8 8 8 7 7 7 7 6 6 6 7 7 7 6 6 6 6 6 6 5 5 4 4 4 4 4 4 4 4 4 3 3 4 4 4 4 3 3 3 3 3 3 2 2 2 2 2 3 3 3 4 4 4 4 4 4 5 5
13 13 13 13 12 11 11 10 10 9 8 8 8 7 7 7 7 7 7 7 7 7 7 7 7 6 6 6 6 5 5 4 4 4 4 4 4 4 4 4 4 3 3 4 4 4 4 3 3 3 3 3 2 2 2 2 2 2 3 3 4 4 4 4 4 4 4 4 4
13 13 13 12 12 12 11 10 10 9 9 8 8 8 8 8 8 8 8 8 8 7 7 7 7 7 6 6 6 5 5 4 4 4 4 4 4 4 4 4 3 3 3 4 4 4 3 3 3 3 3 2 2 2 2 2 2 3 3 3 4 4 4 4 4 4 4 4 4
13 13 12 12 12 12 11 10 10 9 9 8 8 8 8 8 9 9 8 8 8 8 7 7 7 7 6 6 5 5 4 4 4 4 4 4 4 4 4 3 3 3 3 4 4 4 3 3 3 3 2 2 2 2 2 2 2 3 3 4 4 4 4 5 5 4 4 4 3
13 13 12 12 12 12 11 10 10 9 9 9 9 9 9 9 9 9 8 8 8 8 8 7 7 6 6 5 5 5 4 4 4 4 4 4 4 4 3 3 3 3 3 4 4 3 3 3 3 3 3 2 2 2 2 2 2 3 3 3 4 4 4 4 4 4 4 3 3
13 13 12 12 12 12 11 10 10 9 9 9 10 10 9 9 9 8 8 7 8 8 8 7 6 6 5 5 5 5 4 4 4 4 4 4 3 3 3 3 3 3 3 3 3 3 3 3 3 3 3 2 2 2 1 2 2 3 3 3 4 4 4 4 4 4 4 3 3
13 13 12 12 12 12 11 11 10 10 10 10 10 10 9 9 8 8 7 7 7 8 7 7 6 6 5 5 5 5 4 4 4 4 3 3 3 3 3 3 3 3 3 3 3 3 3 3 3 3 3 2 2 1 1 2 2 3 3 4 4 4 4 4 4 4 4 4 3
Height
826 827 829 830 831 833 834 835 836 837 838 839 840 841 842 843 845 846 847 848 849 850 851 852 853 853 854 855 855 856 856 857 858 859 860 861 862 863 863 864 865 866 867 868 868 869 870 870 871 871 871 872 872 873 873 874 874 874 875 875 875 876 876 876 876 876 876 876 876
824 826 826 828 830 831 832 833 834 836 836 838 838 839 840 841 842 844 845 846 847 849 850 851 852 853 853 854 854 855 856 857 858 859 860 861 861 861 862 863 864 865 866 867 867 868 869 869 870 870 870 871 871 872 872 872 873 873 874 874 874 875 875 876 876 876 876 876 876
822 824 825 826 828 829 830 831 832 833 835 836 837 837 838 840 841 842 843 844 846 847 848 850 851 852 852 853 853 855 856 857 858 858 859 860 860 861 861 862 863 864 865 866 866 867 868 869 869 869 870 870 870 871 871 871 872 872 873 873 874 874 874 875 875 875 875 875 875
820 821 822 824 825 826 827 828 830 831 833 834 835 836 837 838 839 840 841 843 844 846 847 848 849 850 851 851 853 854 856 857 857 857 858 858 859 859 860 861 861 863 864 865 866 867 867 868 868 869 869 869 869 870 870 870 871 871 872 873 873 873 873 874 874 874 874 874 874
818 819 820 821 822 823 825 826 828 829 831 832 833 834 835 836 837 839 840 841 843 844 845 846 847 848 849 850 851 853 855 856 856 857 857 857 858 858 859 860 861 862 863 864 865 866 867 867 868 868 868 869 869 869 869 870 870 871 871 872 872 872 873 873 873 873 873 874 874
816 817 818 819 820 822 823 825 826 827 829 830 831 832 833 834 835 836 838 839 841 842 843 845 845 846 847 849 851 852 854 855 856 856 856 857 857 858 858 859 860 861 862 863 864 865 866 867 867 868 868 868 868 868 869 869 870 870 871 871 871 871 872 872 872 872 872 872 873
814 815 816 817 819 820 821 823 824 825 827 828 829 830 830 831 832 833 835 836 838 840 841 842 842 844 846 848 849 851 852 853 854 855 855 856 856 857 858 859 860 861 861 862 863 864 865 866 866 867 867 867 868 868 868 868 869 869 870 870 870 871 871 871 871 871 871 871 871
812 814 815 816 817 818 820 821 822 823 825 826 827 828 828 829 830 831 832 834 836 838 839 839 840 841 844 846 848 849 851 852 853 854 854 855 856 856 857 858 859 860 861 861 862 863 864 865 866 866 866 867 867 867 868 868 868 868 869 869 869 870 870 870 870 870 870 870 871
811 812 813 815 815 816 818 819 820 821 822 823 825 826 827 827 828 829 831 832 834 835 835 836 838 840 842 844 846 848 849 850 851 852 853 854 855 856 856 857 858 859 860 861 862 863 863 864 865 866 866 866 866 867 867 867 868 868 868 868 868 868 869 869 869 869 869 869 869
809 810 811 813 814 815 816 818 819 820 821 822 823 824 826 826 827 828 829 830 831 832 832 834 836 838 840 842 844 846 847 848 850 851 851 852 853 854 855 856 857 858 859 860 861 862 863 863 864 865 865 865 866 866 866 867 867 867 868 868 867 867 867 867 868 868 868 868 868
807 808 809 811 811 813 815 816 818 819 819 820 821 823 824 825 826 827 828 829 829 829 830 832 834 836 838 840 842 844 845 846 847 849 850 851 852 853 854 855 856 857 858 859 860 861 862 862 863 863 864 864 865 866 866 866 867 867 867 867 867 867 866 866 866 866 866 866 866
805 806 808 809 810 811 813 815 816 817 818 819 820 821 822 823 824 826 827 827 827 827 829 830 832 834 836 838 840 842 843 845 846 847 848 849 851 852 853 854 855 856 857 858 859 860 861 861 862 862 863 863 864 865 865 866 866 866 866 866 866 866 866 865 865 865 865 865 865
804 805 806 808 809 810 812 813 814 815 816 816 818 819 821 822 823 825 825 825 825 826 828 829 831 832 834 836 838 840 841 843 844 845 846 848 849 851 852 853 854 855 856 857 858 858 859 860 860 861 862 862 863 864 864 865 865 866 865 865 865 865 864 864 864 864 864 864 864
803 804 805 806 807 809 810 811 812 813 814 815 816 817 819 820 821 823 823 824 824 825 826 828 829 831 832 834 836 838 840 841 842 844 845 846 848 849 850 851 853 854 855 856 856 857 858 859 859 860 861 861 862 863 863 864 864 864 864 864 863 863 863 863 862 862 862 862 862
801 802 803 805 806 807 808 809 810 811 812 813 814 815 816 818 819 820 821 822 823 825 826 826 827 829 831 832 834 836 838 840 841 842 844 845 846 848 849 850 851 853 854 855 856 856 857 857 858 859 860 861 861 862 862 863 863 863 862 862 861 861 861 861 861 861 861 861 861
799 801 802 803 804 805 806 807 808 809 809 810 811 813 814 815 816 818 819 821 822 823 824 825 826 827 829 831 833 835 837 838 840 841 842 844 845 846 847 849 850 851 853 854 855 855 856 856 857 858 859 860 860 861 861 861 861 861 860 860 860 860 860 860 860 859 859 859 859
797 798 800 801 801 802 803 804 805 806 806 808 809 810 811 813 814 815 817 818 820 822 823 823 824 826 828 830 832 834 835 837 838 839 841 842 843 845 846 847 849 850 851 852 853 854 855 855 856 857 858 859 859 860 860 860 860 859 859 858 858 858 858 858 858 858 857 857 857
795 796 797 798 799 800 800 801 802 803 804 805 807 808 809 811 812 813 815 816 818 820 821 822 823 825 826 828 830 832 834 835 836 838 839 840 841 843 845 846 848 849 851 851 852 853 853 854 855 856 857 858 858 858 858 858 858 858 857 857 857 856 856 856 856 856 856 856 855
792 793 794 795 796 796 798 799 800 801 802 804 805 806 807 809 810 812 813 815 817 819 820 822 823 824 825 827 829 830 832 833 835 836 837 839 840 842 844 846 847 848 849 850 851 852 852 853 854 855 856 856 856 857 857 857 856 856 856 856 855 855 855 854 854 854 854 854 853
790 791 791 792 793 794 795 797 798 800 801 803 804 805 806 808 809 811 813 814 816 818 820 821 822 823 825 826 828 829 831 832 834 835 836 838 839 841 843 845 846 847 848 849 850 851 851 852 853 854 854 854 855 855 855 855 855 855 855 854 854 853 853 853 853 852 852 852 851
787 788 789 790 791 793 794 796 797 799 801 802 804 805 806 808 809 811 812 814 816 818 819 821 822 823 824 826 827 828 830 831 833 834 836 837 838 840 842 844 845 846 846 847 848 849 850 851 852 852 852 853 853 853 853 853 853 853 853 853 852 852 851 851 851 851 851 850 850
785 786 787 789 791 792 794 796 797 799 801 802 803 805 806 808 809 811 812 814 816 817 819 820 821 822 824 825 826 827 829 830 832 833 835 836 838 840 841 843 844 844 845 846 846 847 848 849 849 850 851 852 852 852 852 851 851 851 851 851 851 850 850 850 849 849 849 848 848
784 786 787 789 791 792 794 796 797 799 800 801 803 804 806 807 809 811 812 814 816 817 818 820 821 822 823 824 826 827 828 830 831 832 834 836 837 839 841 842 842 843 843 844 845 845 846 846 847 849 850 851 851 850 850 850 850 850 850 849 849 849 848 848 847 847 846 846 846
784 786 787 789 790 791 793 794 796 797 798 800 802 804 805 807 809 810 812 814 815 816 818 820 821 823 824 824 826 826 827 829 830 831 833 834 836 838 840 841 841 841 841 842 842 842 842 844 846 848 849 849 849 849 849 848 848 848 848 847 847 847 846 846 845 845 845 844 844
783 785 786 787 788 790 791 792 794 795 797 799 801 802 804 806 808 809 811 813 815 816 819 821 822 823 824 825 826 826 827 827 829 830 831 833 835 837 838 839 839 839 839 839 839 839 840 842 845 846 847 848 848 847 847 847 847 846 846 846 845 845 844 844 843 843 842 842 841
782 783 784 785 786 788 789 791 792 794 796 797 799 801 802 804 806 808 810 812 814 816 819 821 822 823 824 825 826 826 826 826 827 828 830 832 834 836 837 837 837 837 836 836 836 837 839 841 843 845 845 846 846 846 846 845 845 845 844 844 843 843 842 841 841 840 840 839 839
780 781 782 784 785 786 788 789 791 793 794 796 797 799 801 802 804 806 808 810 812 815 817 819 821 822 823 825 825 825 825 825 826 827 828 830 832 833 834 835 835 834 833 833 834 835 837 840 841 843 843 844 844 844 844 844 843 843 843 842 841 841 840 839 838 837 837 837 836
778 780 781 782 784 785 786 788 790 791 792 794 795 796 797 799 800 801 803 805 808 811 813 816 818 819 821 822 823 823 823 823 824 825 826 828 830 831 832 832 832 830 830 831 832 834 836 838 840 841 841 842 842 842 842 841 841 841 841 840 839 838 837 837 836 835 835 834 834
777 778 780 781 782 784 785 786 788 789 790 791 792 793 794 795 796 796 798 800 802 805 807 810 812 815 817 819 820 821 821 821 822 823 824 826 827 829 830 830 829 828 828 829 830 832 834 836 838 839 840 840 841 840 840 840 840 839 838 838 837 836 835 835 834 833 833 832 832
776 777 778 780 781 782 784 785 786 786 788 789 791 791 792 792 793 793 794 795 797 799 801 804 806 808 811 813 816 817 818 818 819 821 822 823 825 826 827 827 826 826 826 827 828 830 833 835 836 837 838 838 839 839 838 838 838 837 836 836 835 834 833 833 832 831 831 830 830
774 776 777 778 780 781 782 783 784 785 786 788 789 790 791 791 791 792 792 793 794 796 798 801 802 804 806 809 811 813 814 815 817 818 820 821 822 824 825 824 824 824 825 826 826 829 831 833 834 835 836 836 837 837 836 836 836 835 834 833 833 832 831 831 830 829 829 828 828
773 774 776 777 779 780 781 783 784 785 785 786 787 789 790 790 791 791 792 793 795 796 799 801 802 803 805 807 809 810 812 813 815 817 818 819 821 821 822 822 822 823 823 824 825 827 830 831 832 833 834 835 835 835 834 834 833 832 832 831 830 830 829 829 828 827 826 826 826
772 774 776 777 778 780 781 782 783 784 785 786 786 788 789 790 791 792 793 794 796 797 799 800 801 803 805 806 807 809 811 812 814 815 816 817 819 820 820 820 821 821 821 822 824 826 828 830 831 831 832 833 833 833 832 831 831 830 829 829 828 827 827 826 826 825 824 824 823
772 773 775 776 778 779 780 781 782 783 784 785 786 787 788 789 790 791 793 794 795 796 797 799 800 802 803 805 806 807 809 811 812 814 815 816 817 818 818 819 820 820 820 820 823 825 827 828 829 830 830 831 831 831 830 829 829 828 827 826 826 825 825 824 823 823 822 821 821
771 772 774 776 777 778 779 780 781 782 783 784 785 786 787 788 790 791 792 793 794 796 797 798 799 801 802 804 805 806 807 809 811 812 813 814 816 816 817 818 818 818 818 819 821 824 825 826 827 828 828 829 829 828 828 827 826 826 825 824 824 823 822 821 821 820 820 819 819
770 771 773 774 776 777 778 779 780 781 782 783 784 786 787 788 789 790 791 792 794 795 796 797 798 800 801 802 803 805 806 807 809 810 811 813 814 815 816 816 816 816 816 818 820 822 823 824 825 826 826 826 826 826 826 825 825 824 823 822 821 821 820 819 818 818 817 816 816
768 770 771 773 774 776 776 778 779 780 781 782 783 785 786 787 789 790 791 792 793 794 795 796 797 799 800 801 802 803 804 806 807 809 810 811 812 813 814 815 815 815 815 817 819 820 821 822 823 824 824 824 824 824 824 823 823 822 821 820 819 818 817 816 816 815 814 814 813
767 769 770 772 773 774 776 776 778 779 780 781 783 784 785 787 788 789 790 791 791 793 794 795 796 797 798 800 801 802 804 805 806 808 809 811 811 812 813 813 813 814 814 816 817 819 820 821 821 822 822 822 822 822 822 821 821 820 819 817 816 816 815 814 813 812 811 811 810
766 767 769 771 772 773 774 776 777 778 779 781 782 784 785 786 787 788 789 790 791 792 794 795 796 797 798 799 801 802 804 805 806 807 809 810 811 811 811 811 812 813 814 815 816 817 818 819 819 820 820 820 820 820 820 819 818 817 816 815 814 813 812 811 811 810 809 808 807
765 766 768 770 771 772 774 775 776 778 779 781 782 783 784 786 786 787 788 790 791 793 794 794 795 796 798 799 801 802 804 805 806 807 808 809 810 810 810 811 811 812 813 814 814 815 816 817 817 818 818 818 818 818 818 817 816 815 814 813 812 811 810 809 808 807 806 806 805
764 766 768 769 771 772 773 775 776 777 779 780 781 783 784 785 786 787 788 790 791 793 794 795 796 797 798 800 801 802 804 805 806 807 807 808 808 809 809 810 810 811 811 812 813 814 814 815 815 816 816 816 816 816 816 815 814 813 812 811 810 809 808 806 806 805 804 803 803
Wind_Speed
23 23 22 23 22 22 20 19 19 21 22 21 20 20 21 20 20 20 20 20 20 20 20 20 21 21 22 24 26 27 26 23 22 21 20 19 18 18 18 18 18 18 17 17 16 16 14 13 12 12 11 11 11 10 10 10 10 10 10 9 9 9 8 8 8 7 7 7 6
23 23 23 23 22 21 20 19 19 21 22 21 20 21 21 22 21 20 21 21 21 20 20 20 20 21 22 25 27 27 25 22 21 21 20 19 19 19 19 19 19 19 18 18 17 16 15 14 13 12 11 11 11 11 11 10 11 11 10 10 9 9 8 8 8 8 8 7 7
24 24 24 24 23 22 21 20 21 22 22 21 21 21 21 22 21 21 21 21 21 21 20 20 19 20 23 26 28 26 23 21 21 20 20 19 20 20 20 20 20 19 19 18 17 16 15 14 13 12 11 12 12 12 11 11 11 11 11 10 9 9 8 8 8 8 8 7 7
25 25 25 26 26 25 24 23 24 24 23 21 21 21 21 21 21 21 21 21 21 21 21 20 19 21 25 28 28 26 22 20 21 21 20 20 20 21 21 21 21 20 19 18 17 16 15 14 13 12 12 12 12 12 12 12 12 11 11 10 9 9 8 8 8 8 8 7 7
26 26 27 27 28 27 26 24 25 25 24 22 22 22 22 21 21 21 20 20 21 22 22 21 20 23 27 29 29 25 22 20 21 20 20 20 21 21 21 21 21 20 19 19 17 16 15 14 12 11 12 12 12 12 12 12 12 11 11 10 9 9 9 8 8 8 8 8 8
26 27 27 28 29 28 26 25 25 26 25 23 23 23 23 21 22 22 22 22 23 23 22 22 23 26 29 29 28 25 22 21 21 21 20 20 21 21 21 21 21 20 19 19 18 17 16 15 12 11 12 12 12 12 12 12 12 12 11 10 9 9 9 9 9 9 9 8 8
26 26 26 28 29 29 27 25 26 26 25 24 24 24 24 24 25 26 26 25 24 23 23 24 26 28 29 29 28 25 23 22 22 21 20 21 21 21 22 21 21 20 20 19 19 18 17 15 13 12 12 12 11 12 12 13 12 12 11 11 10 10 10 10 9 9 9 9 9
26 26 26 27 29 29 27 26 26 26 26 25 25 25 26 27 28 29 28 26 24 24 25 27 29 30 30 30 28 26 24 23 22 22 21 21 21 22 22 21 21 20 20 19 19 18 17 15 13 12 12 11 11 11 13 13 13 12 11 11 11 10 10 10 10 10 10 10 10
25 25 26 27 29 28 27 26 26 27 27 25 25 26 27 28 29 29 29 27 25 26 29 30 31 31 31 31 29 26 25 24 23 22 22 22 22 22 22 21 21 20 20 19 19 19 17 15 13 12 12 12 11 12 13 14 13 12 12 11 11 11 11 11 11 11 11 11 11
25 25 26 26 28 28 27 26 26 27 27 26 26 26 27 29 29 30 29 28 27 29 31 31 31 31 31 31 29 27 25 24 24 23 23 22 22 23 22 22 22 21 20 19 19 19 18 15 13 12 12 13 13 12 13 14 14 13 13 12 12 12 12 12 12 12 12 12 12
25 26 26 26 28 28 27 26 26 26 26 26 26 26 27 29 30 29 28 27 29 31 32 32 32 32 32 31 29 27 26 25 24 24 23 23 23 23 23 22 22 21 21 20 19 18 17 16 14 13 13 14 14 13 13 14 15 15 14 13 13 13 13 14 14 13 13 13 13
25 25 25 26 27 27 27 27 26 26 26 27 27 27 28 29 30 28 27 28 30 32 32 32 32 32 32 30 29 27 26 25 25 24 23 23 23 23 23 22 22 21 21 20 19 18 17 16 14 14 15 15 14 12 12 14 15 16 16 15 14 14 14 15 15 14 14 13 14
25 25 25 25 26 27 27 27 26 25 26 27 27 27 28 29 29 28 27 28 30 30 30 31 32 33 32 30 28 27 26 25 25 24 23 23 23 23 23 22 21 21 20 20 19 18 17 16 16 16 16 16 14 12 12 14 15 16 17 17 16 16 16 16 16 15 15 14 15
25 25 25 25 25 26 27 26 25 25 26 27 27 27 27 28 28 28 28 29 29 29 29 30 31 32 31 30 29 27 26 26 25 24 23 23 23 23 23 22 21 21 20 19 19 18 17 16 17 17 16 15 13 12 13 14 16 17 18 18 18 18 17 17 17 17 16 16 16
25 25 25 25 26 26 26 27 25 25 26 27 27 27 27 27 28 28 28 28 28 28 28 29 30 30 30 30 28 27 26 25 25 24 23 23 23 23 23 22 22 21 20 19 19 18 18 18 18 17 15 13 12 12 13 15 17 19 20 20 20 19 19 18 18 17 17 17 17
26 26 26 26 26 26 26 27 26 25 26 27 28 27 27 27 28 28 29 28 27 27 27 28 29 29 29 28 27 26 25 25 24 24 23 23 23 23 23 22 22 21 20 19 19 19 20 20 19 16 13 12 11 12 13 16 19 21 22 21 21 20 19 19 18 18 18 19 19
27 27 27 27 27 27 27 28 27 27 27 28 28 27 27 27 27 28 29 29 28 27 27 28 28 28 27 27 26 26 25 24 24 24 23 23 23 23 23 22 22 21 20 20 19 20 22 22 19 16 13 11 10 12 14 17 20 22 22 22 21 21 20 20 19 19 19 19 20
27 28 28 28 28 29 29 29 29 29 29 28 28 28 27 27 27 28 29 29 29 27 26 27 26 26 27 27 26 25 24 24 24 23 23 23 23 23 22 22 21 21 21 20 20 21 22 22 19 15 13 11 12 14 16 19 21 22 22 22 22 22 21 21 21 20 20 20 21
28 28 29 29 29 30 30 30 30 29 28 27 27 27 27 27 27 27 28 28 28 27 26 26 25 25 26 27 26 25 24 24 24 23 23 22 23 22 21 20 20 21 20 20 19 20 21 21 19 16 14 13 14 15 18 20 21 22 22 22 22 22 22 22 22 21 21 21 21
29 29 29 30 30 30 30 30 29 28 26 25 25 25 25 25 25 25 26 26 26 26 25 25 25 24 25 26 25 25 24 23 23 23 22 22 22 21 20 19 20 21 20 20 19 20 20 20 18 16 15 15 15 17 19 21 22 22 22 22 22 22 23 23 22 22 22 22 22
29 29 30 29 29 29 28 28 27 25 24 23 23 23 23 23 23 23 24 24 24 24 24 25 24 24 24 25 25 24 23 22 22 22 21 21 20 19 18 19 20 20 20 19 19 20 19 17 17 16 16 15 16 18 20 21 21 22 22 22 22 22 23 23 23 23 23 23 23
29 29 28 27 27 26 25 25 24 24 23 22 21 21 22 22 22 22 22 22 22 22 23 23 24 24 24 24 24 24 23 22 21 21 21 20 18 17 18 20 20 20 19 19 19 19 19 18 18 17 16 16 17 18 20 21 21 21 22 22 22 23 23 23 23 23 23 23 23
27 26 25 24 24 23 23 23 23 23 22 22 21 20 20 20 20 20 19 20 20 21 21 22 22 22 23 23 24 23 22 22 22 22 20 17 15 16 18 19 20 20 19 19 19 19 20 21 19 18 18 17 18 19 20 20 21 21 21 22 22 23 23 23 23 23 23 23 23
24 24 23 22 21 22 22 22 22 22 22 22 21 20 19 19 18 18 18 18 18 18 19 19 19 20 21 22 22 22 22 23 23 21 18 16 15 17 18 19 20 20 19 19 20 22 22 22 20 19 18 18 18 19 19 19 19 20 20 21 21 22 22 23 23 23 23 23 23
22 22 22 21 21 21 21 21 22 22 22 21 20 19 18 18 17 16 16 16 16 16 16 16 16 18 20 21 21 22 23 23 22 20 17 16 16 18 19 19 20 19 19 21 23 24 24 22 20 19 19 17 17 17 17 17 18 18 19 20 21 21 22 22 22 23 23 23 23
21 21 21 21 20 20 20 20 21 21 21 20 19 18 17 17 16 16 15 15 15 15 15 15 15 17 19 20 21 22 23 23 21 18 17 17 18 20 20 20 19 20 21 23 25 25 24 22 21 21 20 19 17 16 16 17 17 18 19 20 21 21 21 22 22 22 22 23 23
20 21 21 20 20 20 19 19 19 19 19 18 18 18 17 17 17 17 17 17 16 16 17 17 17 19 20 20 22 24 24 23 20 18 18 18 20 22 22 21 20 22 24 25 26 25 24 22 22 22 21 20 20 19 19 18 18 19 19 20 21 21 22 22 22 22 22 22 22
20 20 20 20 20 19 19 18 18 18 18 18 19 19 20 20 21 21 21 21 21 22 22 21 22 23 23 24 26 26 25 23 20 19 19 20 21 23 23 21 21 23 26 26 26 25 23 23 23 23 22 20 20 21 22 22 21 20 20 20 21 21 21 22 22 22 22 22 21
20 20 20 20 19 19 18 18 18 19 20 21 22 23 23 25 26 26 27 27 27 27 27 27 27 28 28 29 30 29 26 23 22 21 21 21 23 23 23 21 21 23 25 26 25 24 23 23 24 24 22 21 21 21 22 22 21 20 20 20 20 20 20 20 21 21 20 21 21
20 20 19 18 18 18 18 20 21 23 23 24 24 25 26 28 29 29 30 30 31 31 32 31 31 32 32 33 32 30 27 25 23 22 22 22 23 23 22 20 22 24 24 24 24 23 23 24 25 24 23 21 21 22 23 23 22 21 20 19 19 19 20 20 20 21 20 20 20
18 18 17 17 17 18 20 22 24 25 25 26 27 27 29 30 30 31 31 31 32 32 32 32 32 33 35 35 33 30 27 25 23 22 22 23 23 23 22 22 23 24 24 23 22 22 23 25 25 25 23 21 21 22 24 24 23 22 21 20 20 20 20 20 21 21 21 21 21
17 16 17 17 17 19 21 23 24 26 26 27 28 29 29 30 30 31 30 30 29 29 29 29 30 32 33 33 30 27 25 23 21 21 22 22 23 22 21 22 22 23 23 22 22 22 24 25 25 24 23 21 21 23 25 26 25 24 22 22 22 22 22 22 22 22 22 22 22
17 17 17 17 18 19 21 22 24 25 26 27 27 28 28 28 29 28 28 27 26 26 27 27 29 30 30 29 26 24 22 21 20 21 21 22 23 22 21 22 21 21 22 21 21 22 24 25 25 24 22 21 22 24 26 26 24 23 22 21 22 23 24 24 24 23 23 23 23
18 18 18 18 18 19 20 21 22 24 25 26 26 26 26 25 25 25 25 25 25 25 25 26 28 29 29 27 24 21 20 20 21 22 22 22 22 22 22 21 19 19 20 20 21 23 25 26 25 23 22 21 23 25 26 26 23 21 21 22 22 23 24 24 25 25 24 24 23
19 19 19 19 19 19 20 20 21 22 23 24 24 24 24 23 23 24 24 24 23 23 24 24 26 27 26 24 22 21 20 20 21 23 23 22 21 22 22 21 19 18 19 19 21 24 26 26 24 23 22 22 24 26 26 24 22 21 22 23 24 24 25 25 25 25 25 24 24
20 20 19 19 19 19 20 20 20 21 22 22 22 22 22 22 22 22 23 23 22 22 23 23 25 24 23 21 20 20 21 22 22 23 22 21 21 21 21 20 18 17 18 19 22 25 26 25 24 23 22 23 25 25 24 21 21 21 23 24 24 25 25 26 26 26 25 24 23
20 20 20 20 19 19 19 20 20 21 21 21 21 21 21 21 20 20 21 21 22 22 23 23 23 22 21 21 20 20 21 21 22 22 21 20 20 20 20 19 17 16 17 19 22 25 25 25 23 23 23 24 25 24 22 21 21 21 22 23 24 25 25 25 25 25 24 23 23
19 20 20 20 19 19 19 19 20 20 20 20 20 20 20 19 19 19 20 21 21 22 22 21 21 20 20 20 20 20 19 20 20 21 21 19 19 19 18 17 16 16 17 20 23 24 24 24 23 23 24 25 25 23 21 20 21 21 22 23 23 24 24 24 23 23 22 22 23
19 19 19 19 19 19 19 19 19 19 19 18 18 18 18 18 18 18 18 19 20 21 20 19 19 18 19 19 18 18 18 18 19 20 19 18 17 17 17 16 15 16 18 20 22 23 23 23 23 24 24 25 26 24 21 20 20 21 22 23 23 24 24 23 22 22 21 21 23
18 18 19 19 18 18 18 17 17 17 17 17 16 16 16 16 16 15 16 18 18 18 17 16 16 16 17 17 17 17 18 18 18 18 18 17 16 15 15 14 15 16 18 20 22 23 23 24 24 24 25 26 26 23 21 19 20 21 22 23 23 23 23 22 21 20 20 20 21
17 17 17 17 17 17 16 16 16 15 15 15 15 14 14 14 14 14 14 15 15 15 14 14 15 15 16 16 17 17 18 18 17 17 17 16 14 13 13 14 16 17 19 20 22 23 24 24 25 25 25 25 25 23 20 19 20 21 23 23 23 22 22 21 20 19 19 18 18
Wind_Direction
186 185 185 185 184 184 184 184 183 183 182 182 180 180 180 180 180 181 183 184 185 187 188 190 191 192 191 190 190 190 188 183 179 177 175 172 169 167 165 165 165 165 165 165 166 166 166 165 162 160 159 159 159 159 160 162 163 164 163 163 163 165 167 168 168 168 168 167 163
186 186 185 184 183 183 184 183 183 183 184 184 182 181 181 182 182 183 185 186 188 189 190 191 193 193 192 191 192 191 187 183 179 177 175 172 170 168 167 166 167 167 168 168 169 169 169 168 165 163 161 162 162 163 164 167 167 168 168 168 167 169 172 174 174 173 173 172 169
187 186 185 184 184 184 184 184 184 184 184 185 185 184 183 183 183 185 186 188 189 190 190 191 192 193 193 193 192 190 186 183 180 177 175 173 172 170 169 169 169 170 170 171 172 172 172 171 168 166 166 166 167 167 169 170 171 172 172 172 172 174 176 179 179 179 180 181 179
188 187 187 187 187 187 187 188 187 186 185 184 185 185 184 184 185 186 187 188 189 190 191 191 191 193 195 194 191 188 185 183 181 178 176 175 174 173 172 171 171 172 173 174 175 175 174 173 171 171 171 171 171 171 172 173 175 175 176 177 178 180 181 183 183 184 186 188 186
189 189 190 190 190 189 190 190 188 187 186 186 185 186 186 184 185 186 186 187 189 191 192 191 190 194 197 195 191 187 184 184 182 180 178 177 176 175 174 174 173 174 175 176 177 177 177 176 175 175 176 177 177 177 176 175 177 178 180 182 184 186 187 187 188 190 191 192 192
191 192 192 192 192 191 191 191 189 188 187 187 187 187 186 185 185 186 187 188 191 192 192 191 194 196 197 194 190 186 184 184 183 182 180 178 177 177 177 176 176 176 177 179 179 180 179 179 179 180 181 182 183 182 179 178 179 182 184 186 189 192 193 193 193 194 196 197 196
193 194 194 194 193 193 193 192 190 189 188 189 189 189 189 188 189 189 190 190 191 190 191 193 197 197 195 191 188 186 185 184 184 183 181 180 179 179 179 179 178 179 180 181 181 182 183 184 184 185 186 187 187 186 184 183 184 186 188 190 193 196 198 198 198 199 201 202 202
195 195 196 196 194 193 192 192 190 190 190 191 191 192 193 193 193 193 192 190 189 189 192 196 198 197 194 190 188 186 185 185 184 183 183 181 181 181 181 181 181 182 182 183 184 185 186 188 190 190 189 191 191 190 190 189 191 193 195 196 198 200 202 202 203 204 206 207 207
196 196 197 196 194 193 192 191 191 191 192 192 193 194 195 196 195 194 192 190 189 192 196 198 198 196 193 190 188 187 186 186 185 184 184 183 183 182 183 183 184 184 185 186 187 187 189 191 194 194 194 194 195 195 194 195 197 199 202 204 205 206 207 207 208 210 211 212 212
196 196 195 195 195 194 192 192 192 193 194 194 194 195 196 198 197 195 193 192 192 195 198 198 197 194 192 190 189 188 187 186 185 185 184 184 184 184 184 185 186 186 187 188 189 190 191 194 197 197 198 200 200 200 200 201 203 206 209 212 213 212 212 213 214 215 216 216 217
197 195 194 194 195 194 193 193 193 194 195 196 196 196 197 199 199 197 194 193 194 197 199 198 195 193 191 190 189 189 188 187 186 185 185 185 185 186 186 186 187 187 188 189 190 191 193 196 199 201 203 206 206 206 206 209 211 213 216 220 220 219 218 218 218 219 220 221 221
198 196 195 194 194 193 193 193 194 195 196 197 198 199 200 201 200 198 195 195 197 198 198 197 195 193 192 190 190 189 189 188 187 186 185 186 186 187 188 188 188 189 189 190 190 191 194 198 200 203 207 209 210 211 213 217 220 222 223 225 226 225 224 223 222 222 223 224 224
199 197 195 195 194 193 193 194 195 196 197 198 199 200 202 203 202 199 197 197 198 197 196 196 195 194 192 191 190 190 190 190 188 187 186 186 187 188 188 189 190 190 190 190 191 192 194 198 201 205 208 212 213 216 220 224 226 227 228 229 229 230 229 228 226 226 226 226 226
200 198 196 195 194 194 194 196 197 198 199 200 200 201 202 203 202 201 199 199 198 196 194 194 194 194 193 192 191 191 191 191 188 187 186 186 187 188 189 190 191 191 191 192 193 194 195 198 202 206 209 214 218 224 229 232 233 233 232 232 232 232 232 232 230 229 228 228 229
201 199 198 196 194 194 196 197 199 200 201 201 200 201 201 202 202 201 201 200 198 197 195 194 193 194 194 193 192 192 191 190 188 187 186 186 188 189 190 192 192 193 193 193 194 196 198 200 203 206 210 217 225 232 237 239 239 238 237 235 234 235 235 234 233 231 230 230 231
202 201 199 197 196 196 197 198 200 201 202 202 201 200 200 201 201 201 201 200 199 199 198 196 194 194 194 193 193 192 191 190 188 187 186 187 188 189 191 193 194 194 194 194 195 199 202 204 204 205 211 221 230 237 241 243 243 242 241 239 238 237 238 237 236 235 233 232 233
203 202 200 199 198 198 199 200 201 202 202 202 201 199 199 200 200 200 200 200 199 199 199 198 195 193 192 191 192 191 190 189 188 188 188 188 188 189 191 193 195 195 195 195 197 201 206 206 204 205 212 226 236 243 246 247 246 244 242 241 240 240 241 241 240 239 237 235 235
204 203 202 201 201 201 202 202 203 204 203 202 200 200 199 199 199 200 201 201 201 200 199 197 194 193 192 191 191 190 190 189 189 189 189 189 189 190 192 194 196 197 196 196 198 203 207 208 206 207 216 231 241 248 250 250 249 247 245 244 243 243 244 244 243 242 241 239 238
205 205 204 203 203 204 204 205 205 205 204 203 201 200 200 200 200 201 202 202 202 201 199 197 194 193 193 192 191 190 190 190 190 190 190 190 191 192 194 196 198 198 198 197 199 204 208 208 206 209 220 235 244 249 252 253 253 252 250 248 247 247 247 246 245 245 243 242 241
207 207 206 205 206 206 206 206 206 206 205 203 202 201 201 201 200 201 202 203 202 201 200 198 196 194 193 192 191 191 191 191 190 190 189 190 191 193 196 199 201 200 199 198 199 203 206 205 205 211 225 239 246 250 254 256 256 255 253 252 251 250 250 250 249 248 246 245 244
210 209 209 208 208 208 208 207 207 206 205 204 203 203 202 202 201 202 203 203 202 201 200 199 197 195 193 192 190 190 189 189 189 189 188 189 191 195 200 204 204 201 198 197 199 201 201 198 202 215 232 245 250 253 255 257 258 257 256 255 254 254 253 253 253 251 250 248 247
213 212 212 211 211 210 210 208 207 207 206 206 205 204 204 204 204 204 203 203 202 200 199 199 198 196 195 193 191 189 188 188 187 187 187 188 192 199 206 207 205 201 199 198 199 198 196 195 206 223 240 250 253 254 256 258 259 259 258 257 257 257 257 257 256 255 253 251 250
215 215 214 214 213 212 211 210 209 208 208 208 207 206 205 205 205 203 202 201 199 198 197 198 198 197 195 193 191 189 187 187 187 186 188 191 198 206 210 208 205 202 199 199 198 194 193 198 212 229 245 253 255 256 258 259 260 260 260 260 261 261 261 260 259 257 256 254 253
217 217 217 216 215 214 213 213 211 210 210 210 209 207 206 205 203 200 198 196 194 193 193 194 196 195 193 190 188 187 187 187 186 187 190 198 206 211 211 208 205 202 201 200 197 195 196 202 216 232 245 252 255 257 260 261 261 261 261 262 264 265 265 264 262 260 258 256 254
219 219 218 218 217 215 215 214 213 213 212 211 209 206 204 201 198 194 190 188 187 187 188 189 191 192 191 189 187 187 188 187 188 191 198 206 210 211 211 208 205 203 201 199 198 197 200 207 221 234 244 250 255 260 263 264 263 262 263 264 266 267 267 266 264 261 259 257 255
219 219 219 219 218 216 215 214 214 213 212 211 209 204 198 192 187 181 177 175 176 178 181 183 186 189 191 189 188 188 188 189 194 202 208 210 211 211 210 208 205 202 200 199 199 200 203 211 225 237 245 251 256 262 266 267 267 266 267 267 268 268 267 266 264 261 259 257 256
219 219 219 219 218 217 215 213 212 211 209 205 199 192 184 177 172 168 167 168 170 175 179 183 188 192 193 192 191 191 192 196 205 213 215 212 211 211 210 208 204 201 201 200 201 202 206 215 228 239 247 252 257 261 265 268 270 271 271 271 270 268 266 265 264 263 261 259 258
219 220 219 219 218 217 214 211 206 201 196 188 182 176 173 172 170 170 172 175 180 184 187 190 193 195 196 196 196 197 200 206 215 218 216 212 212 212 210 207 204 202 202 202 203 205 210 219 230 239 247 252 257 261 266 269 272 273 273 272 270 267 265 264 264 264 264 262 260
220 220 219 218 216 213 208 201 194 188 184 182 180 178 177 178 178 180 183 187 190 192 193 194 196 197 198 198 199 202 207 214 219 219 215 212 212 212 209 205 203 203 204 204 205 208 213 222 232 240 246 251 256 261 266 270 272 274 274 272 269 266 264 263 264 264 264 264 263
220 218 215 211 207 201 195 191 187 186 186 186 185 184 184 185 186 188 191 194 196 197 198 197 197 197 198 199 201 205 210 217 219 217 213 211 210 209 207 202 202 204 205 205 206 209 216 224 233 241 246 250 254 261 266 270 273 274 273 270 267 264 263 263 263 263 263 264 263
213 207 201 196 193 191 191 191 191 191 192 192 191 190 191 192 193 196 197 198 199 200 199 198 198 197 198 199 201 205 211 215 215 213 210 208 207 205 202 201 202 204 205 204 206 211 219 227 235 242 247 250 254 261 267 271 274 274 272 269 266 264 264 264 264 263 263 263 263
200 193 190 190 191 192 194 195 195 196 196 194 194 194 196 198 200 201 201 200 199 197 197 196 197 197 197 199 201 205 210 211 210 209 207 206 203 200 199 200 201 203 204 204 208 214 223 230 237 243 247 250 255 262 269 274 276 275 272 269 267 266 266 265 265 264 264 263 263
192 190 190 191 193 194 195 196 197 197 196 196 196 196 198 200 201 202 200 199 197 196 195 195 195 196 197 198 201 203 206 208 207 206 205 203 200 198 197 198 201 204 205 206 211 220 227 234 239 244 248 252 257 264 270 276 276 275 272 269 268 267 267 266 265 265 264 264 264
193 193 194 195 193 193 193 194 195 196 196 196 197 198 199 199 199 198 198 198 198 198 197 196 196 197 198 200 201 202 203 205 207 206 203 201 198 197 198 199 201 204 207 210 217 225 231 236 241 245 250 254 260 266 272 276 275 272 269 268 267 267 266 266 265 265 265 265 265
195 196 197 198 196 193 193 193 194 195 195 196 197 198 199 199 199 199 199 199 198 197 196 196 196 197 199 201 202 201 201 201 202 202 201 199 197 198 200 202 202 205 209 214 223 230 234 238 243 247 252 257 262 268 272 273 272 269 268 267 267 266 266 266 266 266 266 266 264
197 198 199 200 198 195 193 192 193 194 195 196 198 199 200 201 201 202 201 199 197 195 194 195 196 197 198 199 200 199 198 198 199 199 198 197 197 198 201 203 203 205 211 220 228 233 237 240 244 249 254 259 264 267 269 269 269 268 268 267 267 267 267 267 267 267 266 265 262
198 199 199 200 199 197 194 193 193 195 196 198 199 200 201 202 203 203 201 197 195 194 195 196 197 196 196 198 197 196 195 196 195 194 194 193 194 196 199 201 201 205 214 225 232 236 238 242 247 251 256 259 262 264 266 267 268 268 268 268 268 268 268 268 268 267 265 262 259
197 198 198 199 199 197 195 194 194 195 197 199 200 202 203 204 204 202 199 195 193 194 196 196 195 195 196 195 193 192 192 192 191 191 191 191 193 195 197 197 199 207 219 229 235 238 241 245 249 253 256 258 261 263 265 266 267 267 268 268 269 270 270 270 269 267 264 260 258
196 197 198 198 199 198 196 194 195 196 198 200 202 203 204 204 203 200 196 194 195 196 195 193 192 192 191 189 187 186 186 185 187 188 188 188 191 193 194 195 200 212 224 233 237 241 244 249 252 255 257 259 261 262 264 265 266 267 268 269 271 271 271 270 269 266 263 260 259
194 195 196 197 198 197 195 195 195 197 199 201 203 203 202 199 196 193 192 194 196 195 193 191 188 186 184 182 180 180 180 180 182 183 184 185 189 193 196 201 209 220 230 237 242 246 250 253 256 258 260 262 263 262 262 263 265 267 269 270 271 272 271 270 268 265 262 260 258
191 192 193 195 195 195 195 195 196 196 197 198 198 196 192 189 187 187 189 191 191 191 190 187 182 179 176 175 174 175 177 177 179 180 182 187 194 202 209 215 223 230 236 242 247 251 255 258 260 263 264 265 263 262 261 262 265 268 269 269 270 271 271 270 268 264 261 258 256